Weather History for Midland Airpark, TX

Change the Weather History Date:

Saturday, July 20, 2013

  Actual Average (KMAF) Record (KMAF)
Temperature  
Mean Temperature 80 °F 82 °F  
Max Temperature 91 °F 95 °F 104 °F (1936)
Min Temperature 70 °F 70 °F 62 °F (1988)
Cooling Degree Days 16 17  
Month to date cooling degree days 340  
Year to date cooling degree days 1190  
Since 1 June cooling degree days 801  
Growing Degree Days 30 (Base 50)    
Moisture  
Dew Point 62 °F    
Average Humidity 56    
Maximum Humidity 85    
Minimum Humidity 32    
Precipitation  
Precipitation 0.00 in 0.06 in 1.55 in (1938)
Month to date precipitation 1.18  
Year to date precipitation 7.24  
Sea Level Pressure  
Sea Level Pressure 30.02 in    
Wind  
Wind Speed 6 mph (SSE)    
Max Wind Speed 16 mph    
Max Gust Speed 22 mph    
Visibility 10 miles    
Events      
T = Trace of Precipitation, MM = Missing Value Source: NWS Daily Summary

Daily Weather History Graph

Daily Weather History Graph

Search for Another Location

Airport:

Trip Planner

Search our weather history database for the weather conditions in past years. The results will help you decide how hot, cold, wet, or windy it might be!

Date:

Astronomy

Jul. 20, 2013 Rise Set
Actual Time 6:56 AM CDT 8:53 PM CDT
Civil Twilight 6:28 AM CDT 9:20 PM CDT
Nautical Twilight 5:55 AM CDT 9:53 PM CDT
Astronomical Twilight 5:20 AM CDT 10:28 PM CDT
Moon 6:59 PM CDT 4:37 AM CDT
Length of Visible Light 14h 51m
Length of Day
13h 57m
Waxing Gibbous, 94% of the Moon is Illuminated
Jul 20
Waxing Gibbous
Jul 22
Full
Jul 29
Last Quarter
Aug 6
New
Aug 14
First Quarter

Hourly Weather History & Observations

Time (CDT) Temp. Heat Index Dew Point Humidity Pressure Visibility Wind Dir Wind Speed Gust Speed Precip Events Conditions
12:15 AM 77.0 °F - 64.8 °F 66% 30.08 in 10.0 mi SE 4.6 mph - N/A   Clear
12:35 AM 76.6 °F - 64.8 °F 67% 30.08 in 10.0 mi SE 4.6 mph - N/A   Clear
12:55 AM 75.7 °F - 65.5 °F 70% 30.08 in 10.0 mi Calm Calm - N/A   Clear
1:15 AM 75.6 °F - 65.5 °F 71% 30.07 in 10.0 mi SSE 3.5 mph - N/A   Clear
1:35 AM 75.6 °F - 65.3 °F 70% 30.07 in 10.0 mi Calm Calm - N/A   Clear
1:55 AM 75.6 °F - 65.3 °F 70% 30.07 in 10.0 mi Calm Calm - N/A   Clear
2:15 AM 75.2 °F - 64.9 °F 70% 30.07 in 10.0 mi SE 3.5 mph - N/A   Clear
2:35 AM 75.2 °F - 64.6 °F 69% 30.06 in 10.0 mi SSE 3.5 mph - N/A   Clear
2:55 AM 74.5 °F - 64.9 °F 72% 30.06 in 10.0 mi Calm Calm - N/A   Clear
3:15 AM 74.3 °F - 65.8 °F 75% 30.05 in 10.0 mi Calm Calm - N/A   Clear
3:35 AM 72.7 °F - 66.7 °F 82% 30.05 in 10.0 mi Calm Calm - N/A   Clear
3:55 AM 73.0 °F - 66.2 °F 79% 30.05 in 10.0 mi Calm Calm - N/A   Clear
4:15 AM 71.8 °F - 67.1 °F 85% 30.04 in 10.0 mi Calm Calm - N/A   Clear
4:35 AM 72.1 °F - 66.2 °F 82% 30.03 in 10.0 mi Calm Calm - N/A   Clear
4:55 AM 71.4 °F - 66.4 °F 84% 30.03 in 10.0 mi Calm Calm - N/A   Clear
5:15 AM 71.2 °F - 66.4 °F 85% 30.03 in 10.0 mi Calm Calm - N/A   Clear
5:35 AM 71.4 °F - 66.2 °F 84% 30.03 in 10.0 mi Calm Calm - N/A   Clear
5:55 AM 70.9 °F - 65.8 °F 84% 30.03 in 10.0 mi Calm Calm - N/A   Clear
6:15 AM 72.0 °F - 64.8 °F 78% 30.04 in 10.0 mi ESE 4.6 mph - N/A   Clear
6:35 AM 71.6 °F - 64.6 °F 78% 30.04 in 10.0 mi SE 5.8 mph - N/A   Clear
6:55 AM 71.6 °F - 64.4 °F 78% 30.05 in 10.0 mi SE 3.5 mph - N/A   Clear
7:15 AM 71.6 °F - 64.6 °F 78% 30.05 in 10.0 mi SE 3.5 mph - N/A   Clear
7:35 AM 72.5 °F - 64.9 °F 77% 30.05 in 10.0 mi Calm Calm - N/A   Clear
7:55 AM 73.4 °F - 64.8 °F 74% 30.05 in 10.0 mi SSE 4.6 mph - N/A   Clear
8:15 AM 74.3 °F - 65.3 °F 73% 30.06 in 10.0 mi South 5.8 mph - N/A   Clear
8:35 AM 75.2 °F - 65.7 °F 72% 30.06 in 10.0 mi South 6.9 mph - N/A   Clear
8:55 AM 75.9 °F - 66.2 °F 72% 30.06 in 10.0 mi SSE 9.2 mph - N/A   Clear
9:15 AM 76.3 °F - 66.6 °F 72% 30.07 in 10.0 mi South 11.5 mph - N/A   Clear
9:35 AM 75.7 °F - 66.4 °F 73% 30.07 in 10.0 mi South 10.4 mph - N/A   Clear
9:55 AM 76.3 °F - 66.6 °F 72% 30.07 in 10.0 mi SSE 8.1 mph - N/A   Clear
10:15 AM 79.3 °F - 66.6 °F 65% 30.06 in 10.0 mi South 9.2 mph - N/A   Clear
10:35 AM 81.1 °F 83.2 °F 66.2 °F 60% 30.06 in 10.0 mi SSE 11.5 mph 17.3 mph N/A   Clear
10:55 AM 82.4 °F 84.1 °F 64.6 °F 55% 30.06 in 10.0 mi South 9.2 mph - N/A   Clear
11:15 AM 83.3 °F 84.8 °F 64.6 °F 53% 30.06 in 10.0 mi SE 9.2 mph - N/A   Clear
11:35 AM 83.7 °F 85.1 °F 64.4 °F 52% 30.06 in 10.0 mi South 10.4 mph 16.1 mph N/A   Scattered Clouds
11:55 AM 84.2 °F 85.4 °F 63.5 °F 50% 30.05 in 10.0 mi SE 13.8 mph 17.3 mph N/A   Scattered Clouds
12:15 PM 85.5 °F 86.3 °F 63.0 °F 47% 30.05 in 10.0 mi South 15.0 mph 19.6 mph N/A   Scattered Clouds
12:35 PM 85.8 °F 86.6 °F 62.6 °F 46% 30.04 in 10.0 mi SE 11.5 mph 17.3 mph N/A   Scattered Clouds
12:55 PM 85.5 °F 86.1 °F 62.8 °F 46% 30.03 in 10.0 mi SE 9.2 mph 16.1 mph N/A   Mostly Cloudy
1:15 PM 87.4 °F 87.4 °F 61.2 °F 41% 30.03 in 10.0 mi SSE 13.8 mph - N/A   Scattered Clouds
1:35 PM 87.6 °F 87.7 °F 61.5 °F 41% 30.02 in 10.0 mi SSE 11.5 mph 19.6 mph N/A   Scattered Clouds
1:55 PM 87.6 °F 87.4 °F 60.6 °F 40% 30.01 in 10.0 mi SSE 9.2 mph 16.1 mph N/A   Scattered Clouds
2:15 PM 88.5 °F 88.1 °F 60.3 °F 38% 30.00 in 10.0 mi SSE 11.5 mph 16.1 mph N/A   Scattered Clouds
2:35 PM 88.0 °F 87.6 °F 60.3 °F 39% 30.00 in 10.0 mi SSE 12.7 mph 16.1 mph N/A   Mostly Cloudy
2:55 PM 88.9 °F 88.0 °F 59.0 °F 36% 30.00 in 10.0 mi SSE 13.8 mph 17.3 mph N/A   Mostly Cloudy
3:15 PM 88.7 °F 87.8 °F 58.6 °F 36% 29.99 in 10.0 mi South 9.2 mph - N/A   Mostly Cloudy
3:35 PM 90.1 °F 89.1 °F 57.9 °F 34% 29.99 in 10.0 mi South 8.1 mph - N/A   Scattered Clouds
3:55 PM 89.2 °F 88.2 °F 58.5 °F 35% 29.98 in 10.0 mi SE 12.7 mph 16.1 mph N/A   Mostly Cloudy
4:15 PM 90.9 °F 89.7 °F 57.7 °F 33% 29.97 in 10.0 mi SE 12.7 mph - N/A   Scattered Clouds
4:35 PM 90.9 °F 89.7 °F 57.7 °F 33% 29.96 in 10.0 mi SSE 11.5 mph 21.9 mph N/A   Scattered Clouds
4:55 PM 89.6 °F 88.4 °F 57.9 °F 34% 29.95 in 10.0 mi SE 12.7 mph 20.7 mph N/A   Scattered Clouds
5:15 PM 90.7 °F 89.5 °F 58.1 °F 33% 29.94 in 10.0 mi SE 13.8 mph 20.7 mph N/A   Clear
5:35 PM 91.4 °F 90.1 °F 57.4 °F 32% 29.94 in 10.0 mi SSE 15.0 mph 18.4 mph N/A   Scattered Clouds
5:55 PM 90.3 °F 89.0 °F 57.7 °F 33% 29.93 in 10.0 mi SSE 15.0 mph 20.7 mph N/A   Mostly Cloudy
6:15 PM 90.0 °F 88.6 °F 57.6 °F 33% 29.93 in 10.0 mi SE 16.1 mph 19.6 mph N/A   Scattered Clouds
6:35 PM 89.8 °F 88.4 °F 57.0 °F 33% 29.93 in 10.0 mi SSE 15.0 mph - N/A   Clear
6:55 PM 89.2 °F 87.9 °F 57.2 °F 34% 29.93 in 10.0 mi South 13.8 mph - N/A   Clear
7:15 PM 88.7 °F 87.5 °F 58.1 °F 35% 29.93 in 10.0 mi SSE 15.0 mph 21.9 mph N/A   Clear
7:35 PM 88.2 °F 87.3 °F 58.5 °F 37% 29.93 in 10.0 mi South 13.8 mph - N/A   Clear
7:55 PM 87.1 °F 86.1 °F 58.1 °F 37% 29.93 in 10.0 mi SSE 13.8 mph 18.4 mph N/A   Clear
8:15 PM 86.4 °F 85.4 °F 58.1 °F 38% 29.94 in 10.0 mi South 10.4 mph 16.1 mph N/A   Clear
8:35 PM 85.1 °F 84.4 °F 58.3 °F 40% 29.94 in 10.0 mi South 13.8 mph - N/A   Clear
8:55 PM 83.8 °F 83.3 °F 58.1 °F 41% 29.95 in 10.0 mi South 10.4 mph - N/A   Clear
9:15 PM 83.1 °F 82.9 °F 58.6 °F 43% 29.96 in 10.0 mi South 9.2 mph - N/A   Clear
9:35 PM 82.0 °F 82.4 °F 59.7 °F 47% 29.97 in 10.0 mi South 9.2 mph - N/A   Clear
9:55 PM 81.1 °F 81.9 °F 60.8 °F 50% 29.97 in 10.0 mi South 9.2 mph - N/A   Clear
10:15 PM 80.4 °F 81.2 °F 60.3 °F 50% 29.98 in 10.0 mi South 9.2 mph - N/A   Clear
10:35 PM 79.7 °F - 60.3 °F 51% 29.99 in 10.0 mi South 8.1 mph - N/A   Clear
10:55 PM 79.0 °F - 60.6 °F 53% 30.00 in 10.0 mi South 8.1 mph - N/A   Clear
11:15 PM 78.6 °F - 61.2 °F 55% 30.01 in 10.0 mi South 8.1 mph - N/A   Clear
11:35 PM 78.1 °F - 61.3 °F 56% 30.02 in 10.0 mi South 6.9 mph - N/A   Clear
11:55 PM 77.5 °F - 61.7 °F 58% 30.01 in 10.0 mi South 5.8 mph - N/A   Clear